TimeCDT,TemperatureF,Dew PointF,Humidity,Sea Level PressureIn,VisibilityMPH,Wind Direction,Wind SpeedMPH,Gust SpeedMPH,PrecipitationIn,Events,Conditions,WindDirDegrees,DateUTC
12:53 AM,60.1,54.0,80,29.99,10.0,North,10.4,-,N/A,,Clear,360,2013-09-21 05:53:00
1:53 AM,59.0,53.1,81,29.99,10.0,North,10.4,-,N/A,,Clear,360,2013-09-21 06:53:00
2:53 AM,57.9,52.0,81,29.98,10.0,North,10.4,-,N/A,,Clear,360,2013-09-21 07:53:00
3:53 AM,57.0,52.0,83,29.99,10.0,North,8.1,-,N/A,,Clear,360,2013-09-21 08:53:00
4:53 AM,55.9,51.1,84,29.99,10.0,North,5.8,-,N/A,,Clear,350,2013-09-21 09:53:00
5:53 AM,55.9,51.1,84,29.99,10.0,North,8.1,-,N/A,,Clear,350,2013-09-21 10:53:00
6:53 AM,55.9,51.1,84,30.00,10.0,North,9.2,-,N/A,,Clear,360,2013-09-21 11:53:00
7:53 AM,55.9,52.0,87,30.01,10.0,North,8.1,-,N/A,,Clear,350,2013-09-21 12:53:00
8:53 AM,63.0,53.1,70,30.01,10.0,North,8.1,-,N/A,,Clear,360,2013-09-21 13:53:00
9:53 AM,69.1,54.0,58,30.02,10.0,North,6.9,-,N/A,,Clear,360,2013-09-21 14:53:00
10:53 AM,72.0,50.0,46,30.02,10.0,NE,6.9,-,N/A,,Clear,40,2013-09-21 15:53:00
11:53 AM,75.0,51.1,43,30.01,10.0,NNE,6.9,-,N/A,,Clear,20,2013-09-21 16:53:00
12:53 PM,78.1,48.0,35,29.98,10.0,East,8.1,-,N/A,,Clear,80,2013-09-21 17:53:00
1:53 PM,80.1,46.9,31,29.96,10.0,Variable,3.5,-,N/A,,Clear,0,2013-09-21 18:53:00
2:53 PM,80.1,46.9,31,29.93,10.0,North,3.5,-,N/A,,Clear,360,2013-09-21 19:53:00
3:53 PM,81.0,46.0,29,29.91,10.0,NNE,5.8,-,N/A,,Clear,20,2013-09-21 20:53:00
4:53 PM,81.0,46.0,29,29.89,10.0,East,3.5,-,N/A,,Clear,90,2013-09-21 21:53:00
5:53 PM,82.0,46.0,28,29.87,10.0,Calm,Calm,-,N/A,,Clear,0,2013-09-21 22:53:00
6:53 PM,81.0,46.0,29,29.86,10.0,Calm,Calm,-,N/A,,Clear,0,2013-09-21 23:53:00
7:53 PM,75.0,53.1,46,29.87,10.0,North,3.5,-,N/A,,Clear,10,2013-09-22 00:53:00
8:53 PM,71.1,53.1,53,29.87,10.0,ESE,5.8,-,N/A,,Clear,120,2013-09-22 01:53:00
9:53 PM,69.1,53.1,57,29.87,10.0,SSE,6.9,-,N/A,,Clear,150,2013-09-22 02:53:00
10:53 PM,68.0,52.0,56,29.88,10.0,SSE,3.5,-,N/A,,Clear,150,2013-09-22 03:53:00
11:53 PM,66.9,50.0,54,29.88,10.0,Calm,Calm,-,N/A,,Clear,0,2013-09-22 04:53:00